Regional Weather Roundup
Issued by NWS

Home | Current Version | Previous Version | Text Only | Print | Product List | Glossary On
Versions: 1 2 3 4 5 6 7 8 9 10 11 12 13 14 15 16 17 18 19 20 21 22 23 24 25 26 27 28 29 30 31 32 33 34 35 36 37 38 39 40 41 42 43 44 45 46 47 48 49 50
844
ASCA44 KEWX 181920
RWRMX

LATIN AMERICA AND CARIBBEAN REGIONAL WEATHER ROUNDUP
NATIONAL WEATHER SERVICE AUSTIN/SAN ANTONIO TX
200 PM CDT WED OCT 18 2017

NOTE: "FAIR" INDICATED FEW OR NO CLOUDS BELOW 12,000 FEET WITH NO
SIGNIFICANT WEATHER AND/OR OBSTRUCTIONS TO VISIBILITY.

BAJA CALIFORNIA

CITY           SKY/WX    TMP DP  RH WIND       PRES   REMARKS
LORETO         SUNNY     95  70  43 E7        29.88F HX 101
LA PAZ         SUNNY     97  50  20 MISG      29.91F HX  94
MEXICALI       PTSUNNY   88  30  12 SE7       29.89F
S.J. DEL CABO  SUNNY     95  68  41 E12       29.92F HX  99
TIJUANA        MOSUNNY   86  46  25 SW7       29.99S

NORTHWESTERN MEXICO

CITY           SKY/WX    TMP DP  RH WIND       PRES   REMARKS
CULIACAN       SUNNY     97  70  41 E6        29.87F HX 103
DURANGO        MOSUNNY   73  45  35 E6        30.32F
GUAYMAS        SUNNY     97  64  34 CALM      29.84F HX  99
HERMOSILLO     MOSUNNY   99  39  12 CALM      29.93F HX  94
CD. JUAREZ     CLOUDY    77  46  33 CALM      30.15F
LOS MOCHIS     SUNNY     93  68  43 S10       29.89F HX  97
OBREGON        SUNNY    100  48  17 SW3       29.86F HX  97

NORTHEASTERN MEXICO

CITY           SKY/WX    TMP DP  RH WIND       PRES   REMARKS
CHIHUAHUA      PTSUNNY   84  46  26 E10       30.17F
MATAMOROS      MOSUNNY   84  61  45 SE5       30.09F
MONTERREY      MOSUNNY   75  48  38 E9        30.12F
NUEVO LAREDO   MOSUNNY   79  57  47 SE7       30.12F
PIEDRAS NEGRAS MOSUNNY   77  54  44 SE12      30.13F
REYNOSA        MOSUNNY   79  48  34 SE5       30.10F
SALTILLO       SUNNY     79  57  47 NE7       30.28F
TORREON        PTSUNNY   82  46  28 CALM      30.17F
CD. VICTORIA   SUNNY     82  48  30 MISG      30.10F

WESTERN MEXICO

CITY           SKY/WX    TMP DP  RH WIND       PRES   REMARKS
AGUASCALIENTES SUNNY     75  45  33 S2        30.33F
COLIMA         MOSUNNY   86  72  62 NE6       30.01F HX  92
DEL BAJIO      MOSUNNY   75  50  41 CALM      30.34F
GUADALAJARA    SUNNY     77  54  44 CALM      30.23F
MANZANILLO       N/A    N/A N/A N/A MISG        N/A
MAZATLAN       PTSUNNY   90  81  74 W5        29.90F HX 108
P. VALLARTA    SUNNY     88  75  66 SW8       29.88F HX  97
URUAPAN        MOSUNNY   77  63  61 S9        30.21F
ZACATECAS      SUNNY     73  28  19 E12       30.35F

CENTRAL MEXICO

CITY           SKY/WX    TMP DP  RH WIND       PRES   REMARKS
CUERNAVACA       N/A    N/A N/A N/A MISG        N/A
MEXICO CITY    SUNNY     70  46  43 NW6       30.38F
MORELIA        MOSUNNY   75  54  46 W5        30.28F
POZA RICA      SUNNY     86  70  58 CALM      30.11F HX  90
PUEBLA         MOSUNNY   77  48  36 E3        30.35F
QUERETARO      MOSUNNY   75  52  43 E6        30.35F
S. LUIS POTOSI SUNNY     73  28  19 CALM      30.31F
TAMPICO        SUNNY     81  52  36 W7        30.08F
TOLUCA         PTSUNNY   70  48  46 N5        30.42F

SOUTHERN MEXICO

CITY           SKY/WX    TMP DP  RH WIND       PRES   REMARKS
ACAPULCO       SUNNY     88  81  79 SW6       29.82F HX 105
B. DE HUATULCO MOSUNNY  N/A N/A N/A S9        29.87F
OAXACA         MOSUNNY   75  55  50 NW15      30.24F
P. ESCONDIDO   MOSUNNY   86  79  79 S9        29.94F HX  99
VERACRUZ       MOSUNNY   84  66  54 NE10      30.03F
ZIHUATANEJO    MOSUNNY   91  81  70 S6        29.85F HX 110

YUCATAN PENINSULA

CITY           SKY/WX    TMP DP  RH WIND       PRES   REMARKS
CAMPECHE       MOSUNNY   88  77  70 NW7       29.90F HX 100
CANCUN         PTSUNNY   81  79  94 CALM      29.93F
CHETUMAL       MOSUNNY   88  73  62 CALM      29.92F HX  96
CD. DEL CARMEN PTSUNNY  N/A N/A N/A NW12      29.94F
COZUMEL        PTSUNNY   84  77  79 E7        29.91F HX  94
MERIDA         PTSUNNY   86  73  66 N12       29.94  HX  93
TAPACHULA      MOSUNNY   91  81  70 SW5       29.81F HX 110
TUX. GUTIERREZ CLOUDY    79  70  73 NW13      30.00F
VILLAHERMOSA   CLOUDY    79  79 100 CALM      29.98

CENTRAL AMERICA

CITY           SKY/WX    TMP DP  RH WIND       PRES   REMARKS
BELIZE CITY    LGT RAIN  79  77  94 SE5       29.94
MANAGUA        PTCLDY    81  70  69 SE7       29.77F

CARIBBEAN

CITY           SKY/WX    TMP DP  RH WIND       PRES   REMARKS
ARUBA          MOSUNNY   91  79  66 E25       29.77F HX 107
KINGSTON       MOSUNNY   91  79  66 SE22      29.86S HX 107
NASSAU         PTSUNNY   90  70  51 NE8       29.98F HX  95
SAN JUAN       MOSUNNY   86  79  79 E15       29.96F HX  99
SANTO DOMINGO  RAIN      86  77  74 SE13      29.92S HX  97
ST. CROIX      CLOUDY    88  77  70 SE12      29.97F HAZE    HX 100
ST. KITTS      MOSUNNY   84  75  74 E17       29.97S HX  92
ST. MAARTEN    MOSUNNY   86  73  66 SE14      29.97F HAZE    HX  93
ST. THOMAS     MOSUNNY   86  73  66 E14G23    29.96F HX  93

$$





USA.gov is the U.S. government's official web portal to all federal, state and local government web resources and services.